GW5240 Weather Reports


time (UTC)temp
C
wind
direction
speed
KPH
gust
KPH
rain 1hr
cm
rain 24hr
cm
rain mn
cm
humidity
%
barometer
mb
20260906231450 25 175 0.0 0.0 0.00 0.00 0.00 76 1018.0
20260906230950 25 159 0.0 3.2 0.00 0.00 0.00 76 1017.7
20260906230444 25 170 0.0 0.0 0.00 0.00 0.00 76 1018.0
20260906225943 25 170 0.0 0.0 0.00 0.00 0.00 75 1017.9
20260906225438 25 172 0.0 0.0 0.00 0.00 0.00 75 1017.7
20260906224934 25 168 0.0 0.0 0.00 0.00 0.00 74 1017.5
20260906224431 25 155 0.0 0.0 0.00 0.00 0.00 74 1017.5
20260906223926 25 192 0.0 3.2 0.00 0.00 0.00 74 1017.3
20260906223422 25 171 0.0 0.0 0.00 0.00 0.00 74 1017.4
20260906222920 25 187 3.2 3.2 0.00 0.00 0.00 73 1017.4
20260906222420 25 148 1.6 3.2 0.00 0.00 0.00 74 1017.6
20260906221917 25 155 0.0 0.0 0.00 0.00 0.00 74 1017.7
20260906221417 25 153 0.0 0.0 0.00 0.00 0.00 75 1018.0
20260906220912 25 185 1.6 3.2 0.00 0.00 0.00 75 1017.8
20260906220408 25 162 0.0 0.0 0.00 0.00 0.00 74 1018.0
20260906215906 25 179 1.6 3.2 0.00 0.00 0.00 74 1017.8
20260906215356 25 166 0.0 0.0 0.00 0.00 0.00 74 1018.0
20260906214854 25 170 1.6 3.2 0.00 0.00 0.00 73 1018.2
20260906214354 25 159 3.2 3.2 0.00 0.00 0.00 73 1018.2
20260906213853 26 160 0.0 0.0 0.00 0.00 0.00 74 1018.2
20260906213348 26 186 1.6 3.2 0.00 0.00 0.00 73 1018.1
20260906212845 26 158 0.0 0.0 0.00 0.00 0.00 73 1018.1
20260906212341 26 172 0.0 0.0 0.00 0.00 0.00 74 1018.0
20260906211840 26 160 0.0 0.0 0.00 0.00 0.00 73 1017.9
20260906211336 26 171 0.0 3.2 0.00 0.00 0.00 73 1018.1
20260906210830 26 173 0.0 0.0 0.00 0.00 0.00 72 1018.3
20260906210325 26 171 0.0 0.0 0.00 0.00 0.00 73 1018.4
20260906205820 26 104 3.2 3.2 0.00 0.00 0.00 73 1018.7
20260906205317 26 203 0.0 0.0 0.00 0.00 0.00 73 1018.7
20260906204812 26 341 3.2 4.8 0.00 0.00 0.00 72 1019.0
20260906204311 26 162 3.2 3.2 0.00 0.00 0.00 72 1018.9
20260906203810 26 164 1.6 3.2 0.00 0.00 0.00 73 1019.0
20260906203306 26 157 3.2 4.8 0.00 0.00 0.00 72 1019.1
20260906202803 26 130 3.2 3.2 0.00 0.00 0.00 72 1019.2
20260906202306 26 163 0.0 0.0 0.00 0.00 0.00 70 1019.3
20260906201756 26 154 1.6 3.2 0.00 0.00 0.00 71 1019.2
20260906201250 26 175 0.0 0.0 0.00 0.00 0.00 72 1019.0
20260906200746 26 146 0.0 0.0 0.00 0.00 0.00 72 1019.1
20260906200242 26 194 4.8 4.8 0.00 0.00 0.00 71 1019.0
20260906195737 26 191 1.6 3.2 0.00 0.00 0.00 70 1018.6
20260906195234 26 167 3.2 3.2 0.00 0.00 0.00 70 1018.6
20260906194729 26 183 6.4 8.0 0.00 0.00 0.00 70 1018.4
20260906194224 26 201 4.8 8.0 0.00 0.00 0.00 71 1018.6
20260906193719 26 26 3.2 8.0 0.00 0.00 0.00 71 1018.8
20260906193214 26 129 1.6 3.2 0.00 0.00 0.00 70 1018.7
20260906192710 26 169 3.2 3.2 0.00 0.00 0.00 70 1018.7
20260906192209 26 202 4.8 8.0 0.00 0.00 0.00 70 1018.7
20260906191704 27 166 0.0 3.2 0.00 0.00 0.00 70 1018.6
20260906191203 27 168 0.0 0.0 0.00 0.00 0.00 70 1018.8
20260906190658 27 169 1.6 3.2 0.00 0.00 0.00 70 1018.8
20260906190153 27 50 1.6 3.2 0.00 0.00 0.00 69 1018.7
20260906185652 27 160 3.2 4.8 0.00 0.00 0.00 70 1018.7
20260906185151 27 117 3.2 4.8 0.00 0.00 0.00 69 1018.7
20260906184646 27 178 3.2 4.8 0.00 0.00 0.00 70 1018.6
20260906184142 27 179 3.2 4.8 0.00 0.00 0.00 70 1018.4
20260906183637 27 137 0.0 3.2 0.00 0.00 0.00 69 1018.5
20260906183133 27 194 3.2 3.2 0.00 0.00 0.00 69 1018.6
20260906182632 27 147 3.2 4.8 0.00 0.00 0.00 69 1018.7
20260906182129 27 165 0.0 3.2 0.00 0.00 0.00 69 1018.7
20260906181629 27 158 1.6 3.2 0.00 0.00 0.00 69 1018.7
20260906181125 27 127 3.2 4.8 0.00 0.00 0.00 69 1018.7
20260906180620 27 172 0.0 3.2 0.00 0.00 0.00 71 1018.8
20260906180115 27 163 1.6 3.2 0.00 0.00 0.00 71 1018.6
20260906175613 26 216 3.2 4.8 0.00 0.00 0.00 71 1018.8
20260906175109 26 112 4.8 4.8 0.00 0.00 0.00 71 1018.8
20260906174607 26 101 3.2 3.2 0.00 0.00 0.00 71 1018.8
20260906174102 26 184 4.8 8.0 0.00 0.00 0.00 73 1019.0
20260906173556 25 171 1.6 3.2 0.00 0.00 0.00 75 1018.9
20260906173052 25 165 0.0 3.2 0.00 0.00 0.00 76 1019.0
20260906172546 25 195 3.2 3.2 0.00 0.00 0.00 75 1018.9
20260906172042 25 140 3.2 4.8 0.00 0.00 0.00 75 1019.2
20260906171542 25 38 3.2 4.8 0.00 0.00 0.00 77 1019.4
20260906171037 25 181 3.2 4.8 0.00 0.00 0.00 76 1019.3
20260906170533 24 202 1.6 3.2 0.00 0.00 0.00 78 1019.6
20260906170032 23 140 1.6 3.2 0.00 0.00 0.00 78 1019.5
20260906165529 24 213 6.4 8.0 0.00 0.00 0.00 77 1019.5
20260906165024 23 129 0.0 3.2 0.00 0.00 0.00 80 1019.5
20260906164523 23 164 9.7 11.3 0.00 0.00 0.00 81 1019.7
20260906164020 23 136 3.2 4.8 0.00 0.00 0.00 81 1019.5
20260906163514 23 207 3.2 4.8 0.00 0.00 0.00 82 1019.8
20260906163010 22 126 3.2 4.8 0.00 0.00 0.00 82 1019.7
20260906162506 22 191 0.0 3.2 0.00 0.00 0.00 83 1019.8
20260906161956 22 153 3.2 4.8 0.00 0.00 0.00 82 1019.7
20260906161456 22 101 3.2 4.8 0.00 0.00 0.00 83 1019.9
20260906160954 22 169 3.2 3.2 0.00 0.00 0.00 83 1019.9
20260906160448 22 147 3.2 4.8 0.00 0.00 0.00 84 1019.9
20260906155947 22 193 3.2 3.2 0.00 0.00 0.00 83 1019.8
20260906155445 22 180 0.0 0.0 0.00 0.00 0.00 83 1019.6
20260906154942 22 249 1.6 3.2 0.00 0.00 0.00 83 1019.6
20260906154437 22 165 3.2 4.8 0.00 0.00 0.00 84 1019.7
20260906153935 22 173 0.0 3.2 0.00 0.00 0.00 83 1019.7
20260906153434 22 174 3.2 4.8 0.00 0.00 0.00 84 1019.6
20260906152929 22 193 3.2 3.2 0.00 0.00 0.00 84 1019.9
20260906152424 22 152 1.6 3.2 0.00 0.00 0.00 84 1019.9
20260906151923 22 172 3.2 8.0 0.00 0.00 0.00 83 1019.9
20260906151419 22 197 4.8 4.8 0.00 0.00 0.00 83 1020.0
20260906150914 22 190 1.6 3.2 0.00 0.00 0.00 85 1019.9
20260906150409 22 218 4.8 8.0 0.00 0.00 0.00 84 1019.7
20260906145909 22 121 1.6 3.2 0.00 0.00 0.00 84 1020.0
20260906145407 22 139 3.2 4.8 0.00 0.00 0.00 84 1019.8
20260906144903 22 185 1.6 3.2 0.00 0.00 0.00 85 1019.8
20260906144403 22 190 6.4 8.0 0.00 0.00 0.00 86 1019.8
20260906143858 22 167 1.6 3.2 0.00 0.00 0.00 86 1019.7
20260906143354 21 211 1.6 3.2 0.00 0.00 0.00 86 1019.8
20260906142849 22 125 0.0 3.2 0.00 0.00 0.00 86 1019.8
20260906142344 21 153 1.6 4.8 0.00 0.00 0.00 86 1019.7
20260906141845 21 159 4.8 4.8 0.00 0.00 0.00 87 1019.7
20260906141339 21 174 1.6 3.2 0.00 0.00 0.00 87 1019.6
20260906140838 22 163 3.2 4.8 0.00 0.00 0.00 86 1019.7
20260906140333 22 184 6.4 11.3 0.00 0.00 0.00 86 1019.6
20260906135831 22 176 1.6 3.2 0.00 0.00 0.00 86 1019.7
20260906135326 22 159 0.0 3.2 0.00 0.00 0.00 87 1019.4
20260906134821 22 356 4.8 8.0 0.00 0.00 0.00 88 1019.4
20260906134316 22 202 3.2 8.0 0.00 0.00 0.00 88 1019.5
20260906133812 21 131 1.6 3.2 0.00 0.00 0.00 88 1019.5
20260906133307 21 148 0.0 0.0 0.00 0.00 0.00 88 1019.4
20260906132803 21 95 4.8 8.0 0.00 0.00 0.00 89 1019.3
20260906132306 21 167 0.0 0.0 0.00 0.00 0.00 89 1019.3
20260906131758 21 187 3.2 4.8 0.00 0.00 0.00 90 1019.0
20260906131253 21 163 0.0 0.0 0.00 0.00 0.00 90 1019.1
20260906130749 21 159 0.0 0.0 0.00 0.00 0.00 90 1019.2
20260906130244 21 162 0.0 0.0 0.00 0.00 0.00 91 1019.0
20260906125742 21 164 0.0 0.0 0.00 0.00 0.00 91 1019.1
20260906125240 21 155 0.0 0.0 0.00 0.00 0.00 91 1019.1
20260906124735 21 174 0.0 0.0 0.00 0.00 0.00 92 1019.0
20260906124231 20 142 1.6 3.2 0.00 0.00 0.00 93 1019.0
20260906123729 20 161 0.0 0.0 0.00 0.00 0.00 93 1019.0
20260906123225 20 154 0.0 0.0 0.00 0.00 0.00 94 1018.9
20260906122725 20 166 0.0 0.0 0.00 0.00 0.00 94 1019.1
20260906122220 20 164 0.0 0.0 0.00 0.00 0.00 95 1019.0
20260906121716 20 159 0.0 0.0 0.00 0.00 0.00 95 1018.9
20260906121213 20 169 0.0 0.0 0.00 0.00 0.00 95 1019.0
20260906120708 20 170 0.0 0.0 0.00 0.00 0.00 95 1018.8
20260906120205 19 161 0.0 0.0 0.00 0.00 0.00 95 1018.8
20260906115700 20 159 0.0 0.0 0.00 0.00 0.00 94 1018.7
20260906115155 20 159 0.0 0.0 0.00 0.00 0.00 94 1018.7
20260906114654 20 159 0.0 0.0 0.00 0.00 0.00 94 1018.8
20260906114149 20 166 0.0 0.0 0.00 0.00 0.00 94 1018.7
20260906113650 20 171 0.0 0.0 0.00 0.00 0.00 94 1018.8
20260906113150 20 171 0.0 0.0 0.00 0.00 0.00 93 1018.6
20260906112649 20 171 0.0 0.0 0.00 0.00 0.00 93 1018.6
20260906112146 20 171 0.0 0.0 0.00 0.00 0.00 93 1018.6
20260906111645 20 171 0.0 0.0 0.00 0.00 0.00 93 1018.6
20260906111139 20 171 0.0 0.0 0.00 0.00 0.00 93 1018.4
20260906110635 20 168 0.0 0.0 0.00 0.00 0.00 92 1018.4
20260906110130 20 156 0.0 0.0 0.00 0.00 0.00 92 1018.4
20260906105624 20 158 0.0 0.0 0.00 0.00 0.00 92 1018.6
20260906105121 20 154 0.0 0.0 0.00 0.00 0.00 92 1018.5
20260906104619 21 159 0.0 0.0 0.00 0.00 0.00 92 1018.5
20260906104108 21 171 0.0 3.2 0.00 0.00 0.00 92 1018.5
20260906103606 21 159 0.0 0.0 0.00 0.00 0.00 91 1018.6
20260906103101 21 164 0.0 0.0 0.00 0.00 0.00 91 1018.4
20260906102601 21 170 0.0 0.0 0.00 0.00 0.00 91 1018.4
20260906102056 21 153 0.0 0.0 0.00 0.00 0.00 91 1018.4
20260906101556 21 155 0.0 0.0 0.00 0.00 0.00 91 1018.3
20260906101051 21 161 0.0 0.0 0.00 0.00 0.00 91 1018.5
20260906100547 21 183 0.0 0.0 0.00 0.00 0.00 91 1018.2
20260906100048 21 166 0.0 0.0 0.00 0.00 0.00 91 1018.2
20260906095547 21 162 0.0 0.0 0.00 0.00 0.00 91 1018.2
20260906095043 21 202 3.2 4.8 0.00 0.00 0.00 92 1018.0
20260906094542 21 162 0.0 0.0 0.00 0.00 0.00 92 1017.8
20260906094038 21 156 0.0 0.0 0.00 0.00 0.00 91 1017.6
20260906093533 21 167 0.0 0.0 0.00 0.00 0.00 91 1017.5
20260906093028 21 187 0.0 3.2 0.00 0.00 0.00 92 1017.8
20260906092523 21 171 0.0 3.2 0.00 0.00 0.00 92 1017.5
20260906092018 21 161 0.0 0.0 0.00 0.00 0.00 92 1017.5
20260906091513 21 158 0.0 0.0 0.00 0.00 0.00 91 1017.4
20260906091011 21 157 0.0 0.0 0.00 0.00 0.00 91 1017.5
20260906090511 21 162 0.0 0.0 0.00 0.00 0.00 91 1017.7
20260906090010 21 162 0.0 0.0 0.00 0.00 0.00 91 1017.5
20260906085509 21 161 0.0 0.0 0.00 0.00 0.00 90 1017.7
20260906085009 21 163 0.0 0.0 0.00 0.00 0.00 90 1017.7
20260906084504 21 156 0.0 0.0 0.00 0.00 0.00 90 1017.6
20260906084002 21 160 0.0 0.0 0.00 0.00 0.00 90 1017.6
20260906083459 21 155 0.0 0.0 0.00 0.00 0.00 89 1017.6
20260906082957 21 163 0.0 0.0 0.00 0.00 0.00 89 1017.5
20260906082453 21 155 0.0 0.0 0.00 0.00 0.00 90 1017.4
20260906081949 21 158 0.0 0.0 0.00 0.00 0.00 90 1017.5
20260906081443 21 165 0.0 0.0 0.00 0.00 0.00 89 1017.5
20260906080940 21 158 0.0 0.0 0.00 0.00 0.00 89 1017.6
20260906080436 21 158 0.0 0.0 0.00 0.00 0.00 89 1017.3
20260906075931 21 154 1.6 3.2 0.00 0.00 0.00 89 1017.4
20260906075426 21 152 0.0 0.0 0.00 0.00 0.00 89 1017.5
20260906074921 21 174 0.0 0.0 0.00 0.00 0.00 89 1017.3
20260906074420 21 172 0.0 0.0 0.00 0.00 0.00 89 1017.5
20260906073919 21 150 0.0 0.0 0.00 0.00 0.00 90 1017.6
20260906073414 21 160 0.0 0.0 0.00 0.00 0.00 89 1017.6
20260906072911 21 160 0.0 0.0 0.00 0.00 0.00 89 1017.6
20260906072406 22 160 0.0 0.0 0.00 0.00 0.00 88 1017.7
20260906071901 22 160 0.0 0.0 0.00 0.00 0.00 88 1017.7
20260906071357 22 169 0.0 0.0 0.00 0.00 0.00 88 1017.8
20260906070853 22 162 0.0 0.0 0.00 0.00 0.00 87 1017.9
20260906070349 22 161 0.0 0.0 0.00 0.00 0.00 87 1017.8
20260906065844 22 171 0.0 0.0 0.00 0.00 0.00 87 1018.0
20260906065338 22 155 0.0 0.0 0.00 0.00 0.00 87 1018.1
20260906064834 22 164 0.0 0.0 0.00 0.00 0.00 86 1018.1
20260906064331 22 159 0.0 0.0 0.00 0.00 0.00 85 1017.9
20260906063830 22 167 0.0 0.0 0.00 0.00 0.00 85 1017.9
20260906063326 23 175 0.0 0.0 0.00 0.00 0.00 84 1017.8
20260906062821 23 162 0.0 0.0 0.00 0.00 0.00 84 1018.0
20260906062320 23 167 0.0 0.0 0.00 0.00 0.00 84 1018.1
20260906061815 23 153 0.0 0.0 0.00 0.00 0.00 84 1017.8
20260906061312 23 169 0.0 0.0 0.00 0.00 0.00 84 1017.9
20260906060806 23 226 4.8 8.0 0.00 0.00 0.00 85 1018.0
20260906060304 23 166 1.6 3.2 0.00 0.00 0.00 85 1017.9
20260906055800 23 159 0.0 0.0 0.00 0.00 0.00 85 1017.8
20260906055255 22 172 0.0 0.0 0.00 0.00 0.00 85 1017.9
20260906054750 22 168 0.0 3.2 0.00 0.00 0.00 86 1017.9
20260906054245 22 156 0.0 0.0 0.00 0.00 0.00 85 1017.9
20260906053742 22 166 0.0 0.0 0.00 0.00 0.00 85 1017.9
20260906053237 22 161 0.0 0.0 0.00 0.00 0.00 85 1017.9
20260906052732 22 158 0.0 0.0 0.00 0.00 0.00 85 1017.9
20260906052228 23 158 0.0 0.0 0.00 0.00 0.00 84 1017.9
20260906051725 23 170 0.0 0.0 0.00 0.00 0.00 85 1018.0
20260906051225 23 161 0.0 0.0 0.00 0.00 0.00 85 1018.0
20260906050720 23 162 0.0 0.0 0.00 0.00 0.00 85 1018.1
20260906050215 22 163 0.0 0.0 0.00 0.00 0.00 85 1018.1
20260906045714 23 171 0.0 0.0 0.00 0.00 0.00 85 1018.2
20260906045209 23 172 0.0 0.0 0.00 0.00 0.00 85 1017.9
20260906044705 22 168 0.0 0.0 0.00 0.00 0.00 85 1018.2
20260906044159 22 170 0.0 0.0 0.00 0.00 0.00 86 1018.1
20260906043656 22 169 0.0 0.0 0.00 0.00 0.00 86 1018.2
20260906043151 22 169 0.0 0.0 0.00 0.00 0.00 86 1018.3
20260906042651 22 169 0.0 0.0 0.00 0.00 0.00 86 1018.3
20260906042144 22 169 0.0 0.0 0.00 0.00 0.00 86 1018.2
20260906041640 22 169 0.0 0.0 0.00 0.00 0.00 86 1018.3
20260906041135 22 169 0.0 0.0 0.00 0.00 0.00 86 1018.4
20260906040631 22 169 0.0 0.0 0.00 0.00 0.00 86 1018.2
20260906040126 22 167 0.0 0.0 0.00 0.00 0.00 86 1018.4
20260906035621 22 168 0.0 0.0 0.00 0.00 0.00 87 1018.4
20260906035117 22 158 0.0 0.0 0.00 0.00 0.00 87 1018.3
20260906034617 22 158 0.0 0.0 0.00 0.00 0.00 87 1018.4
20260906034112 22 158 0.0 0.0 0.00 0.00 0.00 87 1018.3
20260906033608 22 158 0.0 0.0 0.00 0.00 0.00 86 1018.3
20260906033103 22 158 0.0 0.0 0.00 0.00 0.00 86 1018.3
20260906032559 23 158 0.0 0.0 0.00 0.00 0.00 85 1018.2
20260906032059 23 158 0.0 0.0 0.00 0.00 0.00 84 1018.2
20260906031555 23 158 0.0 0.0 0.00 0.00 0.00 84 1018.2
20260906031050 23 163 0.0 0.0 0.00 0.00 0.00 83 1018.2
20260906030549 23 163 0.0 0.0 0.00 0.00 0.00 83 1018.1
20260906030049 23 163 0.0 0.0 0.00 0.00 0.00 83 1018.2
20260906025549 23 163 0.0 0.0 0.00 0.00 0.00 83 1018.4
20260906025048 23 163 0.0 0.0 0.00 0.00 0.00 83 1018.4
20260906024543 23 163 0.0 0.0 0.00 0.00 0.00 83 1018.4
20260906024043 23 165 0.0 0.0 0.00 0.00 0.00 83 1018.4
20260906023539 23 174 0.0 0.0 0.00 0.00 0.00 82 1018.2
20260906023034 23 172 0.0 0.0 0.00 0.00 0.00 83 1018.1
20260906022529 23 170 0.0 0.0 0.00 0.00 0.00 82 1018.1
20260906022024 23 169 0.0 0.0 0.00 0.00 0.00 82 1018.0
20260906021520 23 169 0.0 0.0 0.00 0.00 0.00 81 1017.7
20260906021014 23 169 0.0 0.0 0.00 0.00 0.00 82 1017.8
20260906020513 23 162 0.0 0.0 0.00 0.00 0.00 81 1017.7
20260906020013 24 171 0.0 0.0 0.00 0.00 0.00 81 1017.5
20260906015512 24 161 0.0 0.0 0.00 0.00 0.00 80 1017.3
20260906015012 24 171 0.0 0.0 0.00 0.00 0.00 80 1017.1
20260906014512 25 199 3.2 4.8 0.00 0.00 0.00 79 1017.2
20260906014009 25 167 0.0 0.0 0.00 0.00 0.00 79 1016.9
20260906013504 25 159 0.0 3.2 0.00 0.00 0.00 79 1016.7
20260906012959 25 170 0.0 3.2 0.00 0.00 0.00 78 1016.6
20260906012454 25 157 0.0 0.0 0.00 0.00 0.00 78 1016.3
20260906011953 25 124 0.0 3.2 0.00 0.00 0.00 77 1016.3
20260906011449 25 159 0.0 0.0 0.00 0.00 0.00 76 1016.2
20260906010944 25 143 3.2 3.2 0.00 0.00 0.00 76 1016.1
20260906010439 25 159 0.0 0.0 0.00 0.00 0.00 75 1016.1
20260906005936 26 174 1.6 4.8 0.00 0.00 0.00 75 1016.0
20260906005435 26 190 3.2 3.2 0.00 0.00 0.00 75 1016.0
20260906004934 26 174 3.2 3.2 0.00 0.00 0.00 74 1016.0
20260906004428 26 161 3.2 8.0 0.00 0.00 0.00 73 1016.0
20260906003924 26 164 0.0 3.2 0.00 0.00 0.00 72 1015.7
20260906003419 27 154 3.2 4.8 0.00 0.00 0.00 71 1015.8
20260906002914 27 189 3.2 4.8 0.00 0.00 0.00 69 1015.5
20260906002408 27 185 0.0 0.0 0.00 0.00 0.00 67 1015.5
20260906001903 27 167 0.0 0.0 0.00 0.00 0.00 66 1015.6
20260906001359 27 147 0.0 0.0 0.00 0.00 0.00 65 1015.4
20260906000859 27 165 0.0 0.0 0.00 0.00 0.00 65 1015.5
20260906000356 27 141 0.0 3.2 0.00 0.00 0.00 64 1015.6
20260905235849 28 173 3.2 4.8 0.00 0.00 0.00 64 1015.7
20260905235348 28 175 0.0 3.2 0.00 0.00 0.00 64 1015.6
20260905234844 28 181 0.0 0.0 0.00 0.00 0.00 64 1015.6
20260905234339 28 169 0.0 3.2 0.00 0.00 0.00 63 1015.5
20260905233834 28 157 3.2 3.2 0.00 0.00 0.00 63 1015.4
20260905233329 28 151 3.2 3.2 0.00 0.00 0.00 62 1015.2
20260905232828 28 39 4.8 4.8 0.00 0.00 0.00 61 1015.1
20260905232325 28 164 0.0 0.0 0.00 0.00 0.00 61 1015.2